| time (UTC) | temp C | wind direction | speed KPH | gust KPH | rain 1hr cm | rain 24hr cm | rain mn cm | humidity % | barometer mb |
| 20260504081824 | 15 | 20 | 17.7 | 0.0 | 0.00 | 0.00 | 0.00 | 90 | 1016.0 |
| 20260504080823 | 12 | 343 | 4.8 | 8.0 | 0.00 | 0.00 | 0.00 | 10 | 1016.0 |
| 20260504045813 | 17 | 20 | 17.7 | 0.0 | 0.00 | 0.00 | 0.00 | 77 | 1018.0 |
| 20260504044812 | 18 | 20 | 17.7 | 0.0 | 0.00 | 0.00 | 0.00 | 77 | 1018.0 |
| 20260504043812 | 13 | 20 | 17.7 | 0.0 | 0.00 | 0.00 | 0.00 | 81 | 1018.0 |
| 20260504042811 | 14 | 20 | 17.7 | 0.0 | 0.00 | 0.00 | 0.00 | 81 | 1018.0 |
| 20260504041811 | 15 | 20 | 17.7 | 0.0 | 0.00 | 0.00 | 0.00 | 81 | 1018.0 |
| 20260504040810 | 16 | 20 | 17.7 | 0.0 | 0.00 | 0.00 | 0.00 | 81 | 1017.0 |
| 20260504035810 | 17 | 10 | 17.7 | 0.0 | 0.00 | 0.00 | 0.00 | 82 | 1017.0 |
| 20260504034809 | 13 | 334 | 4.8 | 6.4 | 0.00 | 0.00 | 0.00 | 10 | 1017.0 |
| 20260504033808 | 13 | 334 | 4.8 | 6.4 | 0.00 | 0.00 | 0.00 | 10 | 1017.0 |
| 20260504032808 | 13 | 346 | 4.8 | 8.0 | 0.00 | 0.00 | 0.00 | 92 | 1016.0 |
| 20260504031807 | 13 | 20 | 12.9 | 0.0 | 0.00 | 0.00 | 0.00 | 85 | 1016.0 |
| 20260504030807 | 15 | 20 | 12.9 | 0.0 | 0.00 | 0.00 | 0.00 | 83 | 1016.0 |
| 20260504025806 | 16 | 20 | 14.5 | 0.0 | 0.00 | 0.00 | 0.00 | 82 | 1016.0 |
| 20260504024806 | 13 | 30 | 8.0 | 0.0 | 0.00 | 0.00 | 0.00 | 86 | 1016.0 |
| 20260504023805 | 15 | 30 | 8.0 | 0.0 | 0.00 | 0.00 | 0.00 | 84 | 1016.0 |
| 20260504022804 | 16 | 30 | 9.7 | 0.0 | 0.00 | 0.00 | 0.00 | 82 | 1015.0 |
| 20260504021804 | 17 | 30 | 9.7 | 0.0 | 0.00 | 0.00 | 0.00 | 82 | 1015.0 |
| 20260504020803 | 14 | 350 | 12.9 | 0.0 | 0.00 | 0.00 | 0.00 | 91 | 1016.0 |
| 20260504015803 | 15 | 350 | 12.9 | 0.0 | 0.00 | 0.00 | 0.00 | 91 | 1016.0 |
| 20260504014802 | 15 | 350 | 12.9 | 0.0 | 0.00 | 0.00 | 0.00 | 91 | 1016.0 |
| 20260504013802 | 16 | 350 | 12.9 | 0.0 | 0.00 | 0.00 | 0.00 | 91 | 1016.0 |
| 20260504012801 | 17 | 350 | 12.9 | 0.0 | 0.00 | 0.00 | 0.00 | 90 | 1015.0 |
| 20260504011801 | 18 | 350 | 12.9 | 0.0 | 0.00 | 0.00 | 0.00 | 88 | 1015.0 |
| 20260504010800 | 20 | 350 | 14.5 | 0.0 | 0.03 | 0.00 | 0.00 | 86 | 1015.0 |
| 20260504005800 | 16 | 0 | 4.8 | 0.0 | 0.03 | 0.00 | 0.00 | 83 | 1015.0 |
| 20260504004759 | 17 | 0 | 4.8 | 0.0 | 0.00 | 0.00 | 0.00 | 80 | 1015.0 |
| 20260504003758 | 18 | 0 | 4.8 | 0.0 | 0.03 | 0.00 | 0.00 | 80 | 1015.0 |
| 20260504002758 | 20 | 0 | 4.8 | 0.0 | 0.00 | 0.00 | 0.00 | 80 | 1013.0 |
| 20260504001757 | 17 | 0 | 4.8 | 0.0 | 0.00 | 0.00 | 0.00 | 85 | 1013.0 |
| 20260504000757 | 18 | 0 | 4.8 | 0.0 | 0.00 | 0.00 | 0.00 | 83 | 1013.0 |
| 20260503235756 | 18 | 0 | 4.8 | 0.0 | 0.00 | 0.00 | 0.00 | 81 | 1013.0 |
| 20260503234756 | 20 | 0 | 4.8 | 0.0 | 0.00 | 0.00 | 0.00 | 79 | 1013.0 |
| 20260503233755 | 21 | 0 | 4.8 | 0.0 | 0.00 | 0.00 | 0.00 | 75 | 1013.0 |
| 20260503232754 | 22 | 0 | 4.8 | 0.0 | 0.00 | 0.00 | 0.00 | 73 | 1013.0 |
| 20260503231754 | 18 | 200 | 6.4 | 0.0 | 0.00 | 0.00 | 0.00 | 80 | 1013.0 |
| 20260503230753 | 20 | 200 | 6.4 | 0.0 | 0.00 | 0.00 | 0.00 | 77 | 1013.0 |
| 20260503225753 | 21 | 200 | 6.4 | 0.0 | 0.00 | 0.00 | 0.00 | 75 | 1013.0 |
| 20260503224752 | 21 | 200 | 6.4 | 0.0 | 0.00 | 0.00 | 0.00 | 76 | 1013.0 |
| 20260503223752 | 20 | 220 | 17.7 | 0.0 | 0.00 | 0.00 | 0.00 | 72 | 1013.0 |
| 20260503222751 | 20 | 220 | 17.7 | 0.0 | 0.00 | 0.00 | 0.00 | 72 | 1013.0 |
| 20260503221750 | 20 | 220 | 17.7 | 0.0 | 0.00 | 0.00 | 0.00 | 71 | 1013.0 |
| 20260503220750 | 21 | 220 | 17.7 | 0.0 | 0.03 | 0.00 | 0.00 | 68 | 1013.0 |
| 20260503215749 | 21 | 220 | 17.7 | 0.0 | 0.03 | 0.00 | 0.00 | 68 | 1013.0 |
| 20260503214749 | 22 | 220 | 17.7 | 0.0 | 0.03 | 0.00 | 0.00 | 63 | 1013.0 |
| 20260503213748 | 22 | 220 | 17.7 | 0.0 | 0.03 | 0.00 | 0.00 | 63 | 1013.0 |
| 20260503212748 | 18 | 51 | 1.6 | 9.7 | 0.13 | 0.00 | 0.00 | 10 | 1013.0 |
| 20260503211747 | 18 | 51 | 1.6 | 9.7 | 0.15 | 0.00 | 0.00 | 10 | 1013.0 |
| 20260503210747 | 18 | 51 | 1.6 | 9.7 | 0.15 | 0.00 | 0.00 | 10 | 1013.0 |
| 20260503205746 | 20 | 51 | 1.6 | 9.7 | 0.03 | 0.00 | 0.00 | 10 | 1013.0 |
| 20260503204746 | 20 | 51 | 1.6 | 9.7 | 0.03 | 0.00 | 0.00 | 10 | 1013.0 |
| 20260503203745 | 20 | 51 | 1.6 | 9.7 | 0.03 | 0.00 | 0.00 | 10 | 1013.0 |
| 20260503202745 | 20 | 99 | 3.2 | 11.3 | 0.00 | 0.00 | 0.00 | 10 | 1013.0 |
| 20260503201744 | 20 | 99 | 3.2 | 11.3 | 0.00 | 0.00 | 0.00 | 10 | 1013.0 |
| 20260503200743 | 20 | 99 | 3.2 | 11.3 | 0.00 | 0.00 | 0.00 | 10 | 1013.0 |
| 20260503195743 | 20 | 99 | 3.2 | 11.3 | 0.00 | 0.00 | 0.00 | 81 | 1013.0 |
| 20260503194742 | 22 | 20 | 20.9 | 0.0 | 0.00 | 0.00 | 0.00 | 66 | 1013.0 |
| 20260503193742 | 23 | 20 | 20.9 | 0.0 | 0.00 | 0.00 | 0.00 | 61 | 1013.0 |
| 20260503192741 | 23 | 20 | 20.9 | 0.0 | 0.00 | 0.00 | 0.00 | 50 | 1013.0 |
| 20260503191741 | 23 | 20 | 20.9 | 0.0 | 0.00 | 0.00 | 0.00 | 47 | 1013.0 |
| 20260503190740 | 23 | 20 | 20.9 | 0.0 | 0.00 | 0.00 | 0.00 | 47 | 1013.0 |
| 20260503185740 | 25 | 40 | 20.9 | 0.0 | 0.00 | 0.00 | 0.00 | 47 | 1013.0 |
| 20260503184739 | 26 | 40 | 20.9 | 0.0 | 0.00 | 0.00 | 0.00 | 47 | 1013.0 |
| 20260503183739 | 23 | 94 | 4.8 | 9.7 | 0.00 | 0.00 | 0.00 | 71 | 1014.0 |
| 20260503182738 | 23 | 40 | 20.9 | 0.0 | 0.00 | 0.00 | 0.00 | 51 | 1014.0 |
| 20260503181738 | 25 | 40 | 20.9 | 0.0 | 0.00 | 0.00 | 0.00 | 51 | 1014.0 |
| 20260503180737 | 26 | 40 | 20.9 | 0.0 | 0.00 | 0.00 | 0.00 | 47 | 1014.0 |
| 20260503175736 | 23 | 40 | 14.5 | 0.0 | 0.00 | 0.00 | 0.00 | 50 | 1014.0 |
| 20260503174736 | 25 | 40 | 14.5 | 0.0 | 0.00 | 0.00 | 0.00 | 50 | 1014.0 |
| 20260503173735 | 24 | 40 | 14.5 | 0.0 | 0.00 | 0.00 | 0.00 | 58 | 1014.0 |
| 20260503172735 | 23 | 40 | 14.5 | 0.0 | 0.00 | 0.00 | 0.00 | 54 | 1015.0 |
| 20260503171734 | 24 | 40 | 14.5 | 0.0 | 0.00 | 0.00 | 0.00 | 52 | 1015.0 |
| 20260503170734 | 25 | 40 | 14.5 | 0.0 | 0.00 | 0.00 | 0.00 | 50 | 1015.0 |
| 20260503150726 | 22 | 30 | 9.7 | 0.0 | 0.00 | 0.00 | 0.00 | 57 | 1016.0 |
| 20260503130720 | 14 | 360 | 17.7 | 0.0 | 0.00 | 0.00 | 0.00 | 87 | 1016.0 |
| 20260503110713 | 12 | 20 | 24.1 | 0.0 | 0.00 | 0.00 | 0.00 | 90 | 1016.0 |